Location: Unspecified
(41.1637°N, 24.2901°E)
Time: 15:13:24
(UTC+01:00)

ISS - Pass Details

Date: 18 January 2021
Orbit: 418 x 421 km, 51.6° (Epoch: 27 January)

Event Time Altitude Azimuth Distance (km) Brightness Sun altitude
Rises 18:37:34 0° 238° (WSW) 2,360 1.1 -25.1°
Reaches altitude 10° 18:39:40 10° 241° (WSW) 1,499 -0.1 -25.5°
Enters shadow 18:41:28 29° 248° (WSW) 799 -1.8 -25.8°
